WOW 板


LINE

看板 WOW  RSS
新的一年,新年快乐! 今晚谁还在家出团的啊! 祝各位都开到泰坦造物、带洞还外加第三属性的神装... 底下开始闲聊 :D --
QR Code



※ 发信站: 批踢踢实业坊(ptt.cc), 来自: 114.25.3.94
※ 文章网址: https://webptt.com/cn.aspx?n=bbs/WOW/M.1546272319.A.0FB.html
1F:推 reaturn: 希望今年也是BZ干话满满的一年 01/01 00:06


2F:推 jsai: 新年快乐~~~ 01/01 00:10
3F:推 luis0624: 新年快乐~ 01/01 00:11
4F:→ secundus: 岛 01/01 00:13
5F:推 Golbeza: 定 01/01 00:16
6F:→ ZaireWade3: 岛 01/01 00:16
7F:推 hunman360: 岛 01/01 00:21
8F:推 Wind781013: 新年新保底给个外观吧! 01/01 00:26
9F:推 aegius1r: 新年快乐~ 01/01 00:56
10F:推 hmt17: https://i.imgur.com/56RHkjb.jpg 新年快乐 奥格玛发大财 01/01 01:13
11F:→ mantou1991: 新年块肉 01/01 01:22
12F:推 tairaPP: 推楼楼上对话框,张阿诺至今仍逍遥法外== 01/01 01:28
13F:推 zoidsx: 新年不知道有没有泰坦礼物 01/01 01:46
14F:推 redmib: 新年快乐 今年没在wow跨年 爽 01/01 04:00
15F:推 lukelin15: 跨年大夜帮推 魔兽再战20年 01/01 04:52
16F:推 jiaxie: 今年一定岛! 01/01 06:49
17F:推 DEVIN929: 希望可以跟韩国并服 不然战场都等好久 =.= 01/01 07:27
18F:推 jeff45: 新年快乐呀 希望下星期职业平衡能再调整一下 01/01 09:27
19F:推 Liberty0816: https://i.imgur.com/Pnn5rp3.jpg 新年快乐 01/01 11:20
20F:推 enchyi: 今年一定 01/01 12:47
21F:嘘 ihateants: BZ可以再烂一点啊 LAG到死亡可以被小怪再打死 这三小 01/01 16:47
22F:嘘 phoinixa: LAG到炸 01/01 17:33
23F:嘘 phoinixa: 马铃薯伺服器真棒 还有一堆智障PVP咖骂人不帮打 01/01 17:51
24F:→ phoinixa: 技能按下去20秒後才放出去这能打是不是 有病吧 01/01 17:52


25F:→ azurewrath00: 佐司瓦入侵lag到炸了,官方都不管了吗 01/01 20:22
26F:→ henry1234562: 刚才在PVP感觉还好阿 01/01 20:42
27F:→ henry1234562: 从七点打到现在都没啥感觉 01/01 20:43
28F:→ henry1234562: 一被悬赏就要吃火车 这年头克星很难当 01/01 20:43
29F:→ phoinixa: PVP 入侵刚开始那段时间综合频道都在骂 卡成狗 01/01 20:46
30F:→ henry1234562: 刚开始人太多很卡吧 01/01 20:48
31F:推 Oxhorn: 码的 现在还是卡 卡成这样是想做什麽PVP啦 01/01 23:16
32F:→ henry1234562: 不过今天联盟特使很方便 解冲突战能同时解两区特使 01/02 00:00
33F:→ henry1234562: 冲突战同时算该地区 也算第七军团 01/02 00:00
34F:→ Golbeza: 今天联盟解冲突战可以同时解第七军团+佐斯瓦 01/02 00:07
35F:推 cat05joy: 昨晚入侵後半段听说很LAG 还好我刚初没多久就解掉 01/02 11:33
36F:推 kimula01: 请问有人知道这是什麽UI https://imgur.com/cWW91Fh.jpg 01/03 13:35
37F:→ kimula01: 我以为是ELV里面的功能 可看很多实况没用ELVUI也有这UI 01/03 13:36
38F:推 corpserun: WA 01/03 14:08
39F:→ phoinixa: weakauras google就可以找到一堆 有专门的网站 01/03 14:27
40F:推 DEVIN929: 平常开pvp 接近冲突战的时间就转pve 感觉比较容易避lag 01/03 14:32
41F:推 aegius1r: @kimula01 https://wago.io/Afenar_Druid 01/03 14:44
42F:→ kimula01: 感谢 来是找找看 感恩 01/03 16:33
43F:推 henry1234562: 但我开PVP就是要在冲突战杀人阿XD 01/03 19:53
44F:→ d95272372: PVP谷地好LAG ZZZZ 01/05 00:21
45F:推 henry1234562: 解任务的时候还好 要交特使的时候卡到炸 01/05 01:06
46F:→ henry1234562: 卡到我直接切出PVP 还重上一次才能动.. 01/05 01:06
47F:推 orz65535: 阿拉西小怪是不是在实验M+的新词缀R 01/05 01:35
48F:推 MiCy: 陈宜庭我爱你啊! 01/05 09:19
49F:→ axiall: 杀小 阿拉吸小怪有词缀? 01/05 09:25


50F:→ snowanimal: 有唷~这两天都有 01/05 11:01
51F:推 KBryant0824: 终於刷到第一只海岛坐骑 01/05 19:16
52F:推 sarevork: 周末的冲突战... 01/05 21:17
53F:推 henry1234562: 就是真正的冲突战 01/05 21:29
54F:→ henry1234562: 看是跟对面阵营冲突 还是跟伺服器冲突 01/05 21:29
55F:推 Golbeza: 又有一台伺服器回到水里了! 01/05 21:54
56F:→ kimula01: 请问elvui本来血条有平滑的效果 但是我抓新版本後这功 01/06 08:52
57F:→ kimula01: 能预设是关掉的 请问要在elvui的设定里面的那边打看呢 01/06 08:52
58F:→ kimula01: ? 01/06 08:52
59F:嘘 s511320: 干超LAG 01/06 20:22
60F:→ patvessel: 最近练分身有些发现有些等级限制110的158绿装,110的人 01/06 20:55
61F:→ patvessel: 物却不能穿 跳出“等级120才能使用这件物品 ”之类的讯 01/06 20:55
62F:→ patvessel: 息、这是正常情况吗 01/06 20:55
63F:嘘 Golbeza: 暗语众 惊恐的科多兽 03:54 已取得 01/07 03:56
64F:→ fun9891: 请问日屠部落有聊天频道吗? 01/07 17:16
65F:推 ChenDao: 会飞的科多兽 01/07 17:32
66F:→ Golbeza: http://i.imgur.com/ry6wvSp.jpg 01/08 02:42
67F:推 baliallin: 锻造2星图样得用荣誉奖章换 不玩PVP的全三星无望了吗? 01/09 01:20
68F:→ d95272372: 对 就跟上版的肩甲还哪边一样 图靠打战场给 01/09 01:23
69F:嘘 HeyYoYo: 指挥官的战争迷戒 竟然要读秒了= = 01/09 06:10
70F:推 aegius1r: ..居然改这个 QQ 01/09 08:09
71F:推 sarevork: 8.1.5PTR开了 01/09 09:07
72F:推 Wind781013: 1/10 风暴邪渊测试,希望是个好玩的团本 01/09 11:02
73F:推 cat05joy: 月中不是要上了吗 10号才测(?) 01/09 16:50
74F:推 Golbeza: 等玩家付费帮测 01/09 17:16


75F:推 aegius1r: 月中是上围攻祖达萨啦 风暴邪渊还很久 QQ 01/09 18:29
76F:→ ChaosM: 请问五环装是改版之後新掉落的装都有,还是有局限在部份 01/09 20:55
77F:→ spirit761127: 8.1.5後出的神甲都是五环 01/09 21:14
78F:推 Oxhorn: 放个招都要0.5秒才会出来... 01/09 23:53
79F:→ Oxhorn: 怎麽每天晚上都这样 01/09 23:53
80F:→ mealoop: 大概看了一下剧情 更多的屎 做好准备 01/10 02:05
81F:推 windtemple: 保底箱坏掉啦 01/10 08:16
82F:→ ekrik: ......板标祖萨达是不是写反了啊? 01/10 09:19
83F:→ axiall: -.- pvp lag 转了pve还是lag 01/10 10:31
84F:推 funk6478: 板标写反了 01/10 11:17
85F:推 ChenDao: 我改了 请问这样 写对了吗? 01/10 22:32
86F:→ Golbeza: 板主有在玩吗 01/10 22:35
87F:推 Wind781013: 版主云玩家吗(X 01/10 22:54
88F:推 mukuro: 这伺服器状态太夸张了...整个卡在那边几十秒...动一下再卡 01/10 23:22
89F:→ mukuro: 几十秒......难怪股价狂跌 01/10 23:22
90F:推 ChenDao: 好好好 我再改 01/10 23:39
91F:推 ChenDao: 这样呢? 01/10 23:39
92F:→ phoinixa: 现在车队带10层行情多少阿 懒得慢慢收装了 01/11 00:50
93F:→ jiaxie: 一盆发光的河豚,真是好玩具啊! 01/11 01:02
94F:→ hisashiaska: 脱战大锅被改弱了 01/11 10:26
95F:推 lukelin15: 请问可以一次可以买多件商店物品的UI叫什麽... 01/11 15:17
96F:→ jiaxie: 按住SHIFT 01/11 15:25
98F:→ Golbeza: BuyEmAll 01/11 16:05
99F:推 aegius1r: ..伦卡锅子CD变成两小时惹 QQ 01/11 20:03


100F:推 yili1984: 黑海岸用补天赋打血多的稀有没补路人血,被骂低能;密语 01/11 23:42
101F:→ yili1984: 他说不要觉得路人补有补血义务之後忽略他。竟然被换只密 01/11 23:43
102F:→ yili1984: 语说脏话耶。这世界真是太神秘了。 01/11 23:43
103F:推 henry1234562: 遇到不知卡了啥bug 护盾跟回血都无限多的术士 01/12 01:32
104F:→ henry1234562: 只是还是被人海淹死了好几次 01/12 01:32
105F:推 mouse210: 刚回锅 看到这次剧情离开了一开始到现在的部落转到暗语 01/12 03:03
106F:→ mouse210: 众联盟,有没有公会可以收留的~ 01/12 03:03
107F:推 gp671112: 惩戒审判会回好几豆的是哪个天赋还被动呀0.0? 01/12 08:59
108F:→ henry1234562: PVP天赋 审判打同个目标第二次给三豆 01/12 10:27
109F:推 gp671112: 原来!! 难怪一直找不到!! 谢!! 01/12 10:55
110F:→ whiwhiwhi: 嗯? 怎又一个点了PVP天赋不知道效果的 01/12 12:41
111F:→ whiwhiwhi: 那不是自己选3个吗.. 01/12 12:41
112F:推 DEVIN929: 赞达拉再生nerf第一步:伤害中断 接下来要变10%了吗? 01/12 12:43
113F:→ phoinixa: 报个M+ 两个机掰坦补组人之後一声不响离队 01/12 16:39
114F:推 hisashiaska: 入侵解完2个任务才接到大任务 这样还有救吗... 01/13 14:38
115F:→ hisashiaska: GM说没救了QQ 01/13 16:12
116F:推 lukelin15: 感谢g大 01/13 16:13
117F:推 miketk: 请问第七军团徽章 除了阿拉西黑海岸任务及冲突外 还有 01/13 16:40
118F:→ miketk: 什麽可拿? 谢谢 01/13 16:40
119F:→ jiaxie: 军团声望袋每次开20个 01/13 16:44
120F:推 miketk: 军团声望袋 是指崇拜後再积一万给的那个吗? 01/13 17:12
121F:→ jiaxie: 是啊,安官桌有军团声望任务可以优先解。赞达拉WQ都解 01/13 17:13
122F:推 miketk: 了解 感谢!! 01/13 17:14
123F:推 Wind781013: 军七声望变超好农的.... 01/13 19:11
124F:推 henry1234562: 军七现在一个冲突战 防守500 进攻1000 01/13 19:32


125F:→ henry1234562: 这还不算解WQ时给的.. 01/13 19:32
126F:推 orz65535: 入侵大任务自动接受我就不理了 毕竟都自动接受了 01/13 22:40
127F:→ orz65535: 你按不按接受都已经在进行了 01/13 22:41
128F:推 cat05joy: 冲突5 黑海阿拉防守每日各5 第七军团声望箱子20 01/14 11:34
129F:→ orz65535: 前线也有词缀了 这场是易爆 01/14 15:28
130F:推 jiaxie: 有人「血润盛宴」三星图样,吃掉之後还是二星吗QQ 01/14 19:02
131F:→ jiaxie: 第一次托尔托袋子,明明拿到玩具和血润三星食谱,当场吃 01/14 19:02
132F:→ jiaxie: 结果现在看技能,血润盛宴只有二星! 01/14 19:03
133F:→ fishnet: 会不会拿到的是血肠而不是盛宴阿 01/14 19:31
134F:→ jiaxie: 是这样吗@@?晚点换角色看看 01/14 20:59
135F:推 alyh: M10幽腐香菇王 不开无敌直接吃香菇 很棒(补到眼神死) 01/14 23:56
136F:推 Wind781013: 我是队友看着我冰法表示香菇没震光交给你了..... 01/15 00:15
137F:→ phoinixa: 为什麽总是有人预组选X副本结果进组之後说是打Y副本 01/15 13:48
138F:→ phoinixa: 标题写对这种事都有障碍吗 01/15 13:48
139F:→ d95272372: 对那些人来说有吧 01/15 14:02
140F:→ phoinixa: 这种人不是手残脑残就是懒 01/15 17:43
141F:推 DEVIN929: 蓝帖补充了s2开始 特使跟冲突战奖励装备将看专精非职业 01/16 09:59
142F:→ DEVIN929: 另外分解非本职神甲将不在得到泰坦残质 01/16 10:02
143F:推 DEVIN929: 想农全团神甲拆残质 那就全组同甲去玩吧 01/16 10:06
144F:推 orz65535: 说到武器箱 DH最爽 永远都是能用的 PAL最惨 一天赋一把 01/16 13:01
145F:→ orz65535: 布甲也不错爽 就坏在有魔杖 01/16 13:07
146F:→ Mohism: 请问现在普通萨墓 370 DH或圣骑能单刷了吗? 01/16 14:04
147F:→ fishnet: 这麽说武僧也跟PAL一样 三种专精的武器类型不重复 01/16 14:13
148F:→ snowanimal: 本周黑海岸的双手法杖属性漂亮,造型很可以 01/16 14:59
149F:→ henry1234562: 圣骑好歹坦补都能拿盾.. 01/16 21:42


150F:→ henry1234562: 武僧三专精没有任何一把武器能共用 01/16 21:42
151F:→ orz65535: 对惩戒来说那个盾只是分母+1阿 01/16 22:04
152F:→ henry1234562: 最机车的是 武僧补还双手跟主副手都能带 01/16 23:21
153F:→ henry1234562: 坦克基本所有双手都能拿 分母有多大你知道吗 01/16 23:21
154F:推 Foreveryears: 请问托尔托追寻者解完奖励的特使在哪0.0? 01/17 11:13
155F:推 cat05joy: 虽然复合职很难抽 冲突阿拉黑海武器 可是我都抽满了.... 01/17 11:44
156F:→ phoinixa: 很缺武器 武器箱还开到没屁用的副手ZZZ 01/17 12:03
157F:推 gomany437: 托尔拖在斯陀谷地左上海边 01/17 12:42
158F:推 wakai: 开始想要打PVP 没朋友是不是只能打练习战啊 01/17 13:37
159F:→ jiaxie: 今天有更新档74.33MB!! 01/17 17:12
160F:→ kimula01: 回锅玩家问一下..M+的宝底箱 在哪边开 找不到 QQ 01/17 19:04
161F:→ henry1234562: 联盟在办公室 01/17 19:15
162F:→ kimula01: 那请问一下 小弟是部落的 不知道是在哪里 感谢 01/17 19:25
163F:→ dxassin: 进大封印 右手边第一个房间 01/17 19:34
164F:→ kimula01: 感谢你 01/17 19:41
165F:→ DarkPaladin: 今天海岸WQ只有4个? 01/17 21:33
166F:→ hisashiaska: 5个 01/17 21:38
167F:→ cpcexe: 生存猎手榴弹打火爆球是不是改掉了? 01/17 23:26
168F:→ asdxdew: 入侵/阿拉希/黑海岸wq都不算周任,爆雪要不要改啊 01/18 12:02
169F:推 q5967780: 想问一下有公布8.1.5的改版日期了吗 01/18 14:15
170F:→ mealoop: 没有 01/18 14:45
171F:推 amsmsk: 珍娜真的库尔提拉斯人吗? 体型差太多惹 01/18 23:07
172F:推 orz65535: 希望到时候库人有个NPC的靠墙动作 01/19 00:07
173F:推 Wind781013: 检讨吃亏的一方,真的很棒。 01/19 10:19
174F:推 wdcr: 为什麽这个机制不早10年出来... 01/19 13:52


175F:→ wdcr: (显示为战歌联盟) 01/19 14:00
176F:→ phoinixa: 根本逻辑死去 当笑话看就好 01/19 15:42
177F:推 phbz: 魔草现在还有用吗 还是看到蛮多人在收的 01/19 19:03
178F:→ henry1234562: 一个是 可以做静心 一个可以搓不少个 01/19 19:51
179F:→ henry1234562: 另一个是 8.15铭文有一个配方要魔草 01/19 19:52
180F:→ henry1234562: 效果是啥不知道就是.. 01/19 19:52
181F:推 orz65535: 魔草直到现在用量一直都很大喔 高阶雕纹一样要7版原料 01/20 00:30
182F:→ kimula01: 请问8版 部落方 换硬币骰装的NPC在哪里呢 回锅不清楚 01/20 14:12
183F:推 aegius1r: 在大市集那边 跟乌龟人同一阶 那旁边有绷带人的店 01/20 15:34
184F:→ dxassin: 找警卫问塑型师 在那一间里面 01/20 16:06
185F:推 orz65535: 联盟表示 就在旅店旁边 很难找吗 01/20 17:44
186F:嘘 IcJack: 到底甚麽鬼伺服器? 旧世界飞 还可以在空中停住 这样敢收钱 01/21 13:07
187F:推 KBryant0824: 任务线开了~不过副本周四才开 01/22 11:32
188F:推 isomor: 征服点数进度条满了现在不交礼拜四会归零吗? 01/22 13:55
189F:推 tjcohya: 请问这周只要打M6以上下周都是拿m6奖励吗?差在拿的钥匙 01/22 17:41
190F:→ tjcohya: 层数而已? 01/22 17:41
191F:推 david106: 这周四之前一样是最高10层拿380装备 01/22 17:45
192F:→ david106: 是1/24-1/30 这七天锁M+通关奖励最高到M6 385装备 01/22 17:46
193F:推 aegius1r: 解完短兵相接居然只有神兵奖励 01/22 18:34
194F:推 Wind781013: 部落的阵营任务有BUG = = 01/22 19:18
195F:→ henry1234562: 目前已知 商人只卖385+的特质装 01/22 23:12
196F:推 henry1234562: 然後 时光周任好像是给400团本装 01/22 23:14
197F:→ mealoop: 时光周是给普通箱子 普通是400喔? 01/23 01:22
198F:→ mealoop: https://youtu.be/LC_NPKQdMIQ 新片片 01/23 01:27
199F:→ mealoop: https://youtu.be/rmoUJ2N9HOQ 01/23 01:28
200F:推 henry1234562: 果然 神王後面满地都是东西要躲 01/23 01:39
201F:→ mealoop: 看了一下twitch 人最多那台的有出机器人 01/23 02:06
202F:→ mealoop: 进度最快的好像是在议会前惹 01/23 02:06
203F:→ mealoop: 外卡灭了几次H地精王惹 看来团康真的难 01/23 02:19
204F:→ mealoop: 普通团还没过议会 外卡已经到议会惹@@ 01/23 03:14
205F:→ mealoop: 看了一下官推原来议会有问题 继续DEBUG 01/23 03:27
206F:→ d95272372: 喔 总算有实况要打H珍那了 01/23 04:19
207F:嘘 Golbeza: 库尔提拉斯/赞达拉要等8.15开放 BZzz 01/23 08:38
208F:推 DEVIN929: 新种族本来就说没在这波更新里了吧 01/23 09:35
209F:→ Golbeza: 原本就知道不过看到wowhead又特地提醒 悲愤一下 01/23 09:42
210F:→ Friis: https://i.imgur.com/VGP5wVP.jpg 01/23 11:40
211F:→ Friis: H已经被破关了 01/23 11:40
212F:推 henry1234562: 跟的状况 後三王难度相当高 01/23 12:41
213F:→ cat05joy: 这次METHOD还会全程实况拓荒吗 01/23 13:17
214F:→ asdxdew: 没吧 01/23 14:54
215F:→ mealoop: https://twitter.com/methodgg 会实况ㄛ 01/23 15:06
216F:推 d6102003: 什麽狗干烂特使啊 资源资源点数 01/24 07:47
217F:推 d6102003: 超多事要做= = 打时光打海岛打人打一轮M0 01/24 07:59
218F:推 isomor: 真 8.1 01/24 08:09
219F:推 Rivendare: XDDDDDD 资料片主打种族到现在还不能玩 01/24 09:30
220F:→ Rivendare: 笑死人 01/24 09:30
221F:推 cat05joy: 开新种族才会变真8.1 现在是7.6(?) 01/24 10:59
222F:推 Golbeza: 7.5.5 01/24 11:36
223F:推 Golbeza: 有人知道MoP时光漫游宝箱装等多少吗 01/24 13:37
224F:→ mealoop: 给普通箱应该是385吧 01/24 13:41
225F:推 s511320: 我开到泰坦造物415(舔 01/24 15:29
226F:推 Wind781013: 新战场波港开打 01/24 15:49
227F:推 windwalker: 有人现在这时间点也是51900309无法登入吗 01/24 16:28
228F:推 c8162981: +1 01/24 16:28
229F:推 momomasun: 说所有伺服器无法登入 01/24 16:29
230F:推 cookieyue: +1 01/24 16:30
231F:→ summer17299: +1 01/24 16:31
232F:推 c8162981: 进了 01/24 16:32
233F:→ mealoop: 前夕看到版上说黑海岸打很凶才包月 结果没跟到 01/24 16:42
234F:→ mealoop: 现在真的很乱吗[email protected]@ 01/24 16:42
235F:→ cat05joy: 预期三天内回归原本状态 01/24 17:55
236F:推 isomor: 冲突战的奖励不是说也会提升到385吗?怎麽还是370 01/24 18:45
237F:→ henry1234562: 恩..严格来说 并没有说冲突战的会提升 01/24 19:06
238F:→ henry1234562: 因为只有说 特使的会... 所以也是没说错 01/24 19:07
239F:推 isomor: 我在wowhead上看的@@ 01/24 19:13
240F:→ isomor: World Quests rewards from Emissaries and Assaults will 01/24 19:13
241F:→ isomor: scale up to Item Level 385. 01/24 19:13
242F:推 Wind781013: 联盟其实可以趁这时候开PVP练分身感觉很赚 01/24 21:58
243F:推 anadabaga: PVE部落角平常解WQ都没啥人解很慢,今天人多很快搞定 XD 01/24 22:22
244F:推 deadlyearth: LAG到在大封印发呆 01/25 00:25
245F:推 rimi7609: 刚奥格玛有人在喊说自己是联盟使者,敬请部落开pvp要解 01/25 09:47
246F:→ rimi7609: 解任,那是反串吗? 第一反应看到觉得干我屁事,只有我 01/25 09:48
247F:→ rimi7609: 这样想吗|||||? 01/25 09:48
248F:→ rimi7609: 普通会互相体谅让对方解任的吗??? 不会觉得喊得有病吗? 01/25 09:48
249F:→ et310: 爆雪搞个400装等就可以让玩家转移焦点互仇阵营 不愧专业的 01/25 11:17
250F:推 sarevork: 靠 冲突战最後的船BUG上不去 01/25 12:45
251F:→ meishan31: 老玩家回锅发现联盟开PVP部落开PVE搞不好会错乱 01/25 17:26
252F:推 ko007x: 怎麽登不进阿?? 01/25 17:50
253F:推 Dolphtw: 请各位大大帮我观落阴 伺服器是不是承受不了太多玩家打pv 01/25 20:38
254F:→ Dolphtw: p 01/25 20:38
255F:→ mealoop: 看起来77天循环要回来惹 ptr对话直接提77cycle 01/25 20:41
256F:推 diefish5566: 新词缀好爽喔 AE A起来 01/25 21:39
257F:推 zack2: 屍爆是不是改痛了?一秒4%我有没有看错?? 01/25 21:59
258F:推 diefish5566: 屍爆超痛啊 阿塔小龙之类的血量有够刺激 01/25 22:09
259F:→ yuusan: 装等世界 战场看到36万血熊坦拿旗 怎麽打... 01/25 22:58
260F:推 rockmanalpha: BZ就爱自打嘴巴 7版说PVP引入装备模板避免装等压制 01/25 23:15
261F:→ rockmanalpha: 下一个资料片就拿掉 根本笑话 01/25 23:16
262F:推 Wind781013: 真‧达萨亚洛之战 01/25 23:51
263F:推 alyh: 风暴一王前水滴+屍爆 直接跑魂... 01/26 01:00
264F:推 diefish5566: 而且这周屍爆痛就算了 还会有地震补刀 01/26 01:20
265F:→ henry1234562: 屍爆被强化过了 所以这周挺难的 01/26 01:51
266F:→ henry1234562: 原本不会死的层数变成会死 然後被地震补刀 01/26 01:51
267F:推 aegius1r: 制作s2的385 拆掉 潮汐核心跟驱质都会还回来 01/26 18:06
268F:→ aegius1r: 所以只要凑够核心就可以搓全部385拿400制造图了 01/26 18:06
269F:推 bruce2725: 新团本是不是很吃资源阿 rtx2060 开到3平常只有40-50 01/26 21:17
270F:→ bruce2725: 战斗中只剩20-30... 01/26 21:17
271F:推 asdxdew: 有联盟的今天特使给400特质吗? 装等要多少? 01/27 12:08
272F:→ henry1234562: 只有385 01/27 12:41
273F:推 shinew: 这礼拜M+要打到几层有保底阿? 01/27 13:29
274F:→ d95272372: 2以上都有吧 只是最高到M10给410 01/27 14:09
275F:推 henry1234562: M10 是上限 01/27 15:08
276F:→ yuusan: 装等375 特使给370 装等370 特使给385 黑人问号0.0 01/27 17:31
277F:→ mealoop: 8.1之前 特使特质装等会看你的头肩胸部位 01/27 19:55
278F:→ mealoop: 这规则应该还是没改喇 01/27 19:55
279F:推 JamesChen: 神王之死怎麽没法解 01/27 23:53
280F:→ JamesChen: BUG了 点了好几次都停在酋长来 01/27 23:54
281F:→ henry1234562: 好像热修八王血量了 现在打输出比以前有余裕 01/28 00:34
282F:→ henry1234562: 大工匠也不会断线了 不过还是很强 P3猛的不行.. 01/28 00:35
283F:→ a84474666: 八王是说英雄还是普通阿,我翻英雄的wcl血量没变 01/28 01:18
284F:→ henry1234562: 普通 01/28 01:21
285F:→ henry1234562: 嘛 也可能是错觉.. 01/28 01:21
286F:→ cookieyue: 普通吗? 01/28 20:17
287F:→ cookieyue: 刚刚凌晨普通8感觉好像有调整过 同批人打起来变简单 01/29 05:21
288F:推 aegius1r: wago.io支援mdt惹 太神啦 01/29 08:29
289F:推 orz65535: 去年血红钻石跟垃圾一样10G随便丢 现在翻到1000一个了 01/29 12:24
290F:推 jiaxie: 哇!改8.1前,我在卖场有低价收了一些红绿精良宝石 01/29 13:11
291F:推 orz65535: 主要是虽然是有改善红绿使用率不高的问题 但明显把库存 01/29 13:35
292F:→ orz65535: 用完後就撑不起新增的产量了 导致价格爆涨 01/29 13:36
293F:→ orz65535: 一个415戒指需要的红绿+眼睛 就需要爆掉12组风暴白银 01/29 13:40
294F:推 orz65535: 一个矿50计也就要烧掉12万 01/29 13:42
295F:→ meishan31: 1.29 职业平衡,又要改BIS了,下次维修以後上线 01/29 19:39
296F:→ OscarShih: 靠北了 风僧雪怒果然被砍33%, 去他的已经在下面了砍屁 01/29 22:24
297F:→ henry1234562: 就1.5%变1% 01/29 22:40
298F:推 lnceric008: 开推m王罗 01/29 23:05
299F:→ OscarShih: method的台好像要打H? 01/29 23:08
300F:→ OscarShih: 场地已经好了 背後很大的红牛 01/29 23:08
301F:推 lnceric008: WG一把干掉M1 又可以便当罗 01/29 23:17
302F:→ OscarShih: sco打了一个30个都是皮甲的团 01/29 23:31
303F:推 lnceric008: WG三把过M2 01/29 23:37
304F:推 b2305911: BDG 3/9 01/30 00:21
305F:→ henry1234562: 看来M玉火大师还是把武僧干掉就等於赢了 01/30 02:12
306F:→ henry1234562: 四王本质上没啥区别 就是伤害跟小怪击杀要求更快 01/30 03:16
307F:→ henry1234562: 然後用保护把金币分摊解决掉就没事了.. 01/30 03:16
308F:→ d95272372: WG的5王换坦好快 01/30 03:24
309F:→ d95272372: LIMIT 5/9 .... 01/30 03:27
310F:→ cookieyue: .........好像有点快.. 01/30 04:35
311F:推 YumingHuang: BL 开黑海岸 .. 400 装备箱 @@ 01/30 15:42
312F:→ Golbeza: 都8.1了还有人在BL == 01/30 15:56
313F:推 Wind781013: 我尊重多元成家。 01/30 16:13
314F:推 YumingHuang: 拍谢,打太快,部落 = =" 01/30 16:15
315F:→ jiaxie: 楼上别怕!置底闲聊 01/30 17:00
316F:推 YumingHuang: 400 要平民化了 = o = 01/30 18:26
317F:推 Wind781013: 看好多大公会都是用刺杀贼,可恶想学 01/30 20:52
318F:推 secundus: 部落方有30%加成, 但是没力挽狂澜可接 01/31 04:43
319F:推 HeyYoYo: 有好接啊 找半血接 01/31 04:50
320F:推 secundus: O_o 那我找错人了, 抱歉发了错误讯息 == 01/31 08:48
321F:→ secundus: 上周开联盟的是在PVP那区接, 所以早上跑去部落PVP那 01/31 08:52
322F:→ secundus: 没看到以为没任务, 没想到是找迦罗娜, 歹势啦 01/31 08:53
323F:→ henry1234562: 联盟是在船上接的阿.. 01/31 09:03
324F:推 orz65535: 船上接 PVP区还 01/31 10:38
325F:推 secundus: 这样r...我整组记歪了 -.- 01/31 12:17
326F:推 sunchen0201: 随团一区乱橹就过了,是大家装等都太高了吗? =.= 01/31 14:23
327F:→ cookieyue: 刚开正常都是满装去打打吧 01/31 14:43
328F:推 jiaxie: 惊!军团剥皮满了,开始加德拉诺剥皮点数! 01/31 14:50
329F:→ jiaxie: 说错,库尔提拉斯剥皮150满,在斯陀剥皮加的是德拉诺剥皮 01/31 14:51
330F:→ jiaxie: 西北边托尔托海草任务剥皮加的是德拉诺 01/31 14:54



like 热门文章




like.gif 您可能会有兴趣的文章
icon.png[食记] 台中西屯路二段 三姊妹云缅小吃
icon.png[眼残] 瓶盖我猜不透你
icon.png[分享] 楚门 Trumon G-1852S 简易开箱心得
icon.png[公告] 置底医生的那篇推文
icon.pngRe: [洽特] [柚木N’]ずっと好きだった 第六话
icon.pngRe: [闲聊] 月曜日のたわわ
icon.png[创作] 自制孵蛋器
icon.png[问题] 需要缩鼻翼吗
icon.png[美图] 160407 Nana @SURE 四月号杂志(2016)B
icon.png[心得] 红米Note3特制版刷机
icon.png[情报] 公家机关单办门号案
icon.png[闲聊] 同人漫画分享-西野 ININ联盟2即将上硬
icon.png[心得] 苍の海贼龙 地狱 执行者16PT
icon.png[问题] 这是烙印吗?LG G5 speed
icon.png[资讯] ivideo wifi FB粉丝优惠序号
icon.png[问题] 41901 的耳机有比 E9 原厂耳机 好吗?
icon.png[闲聊] 寻访东京吉原泡泡浴心得
icon.png[讨论] 没有队长X巴奇以外的选择了吗?
icon.png[情报] 颜值高:小米Note2绿色/紫色版亮相CES20
icon.pngRe: [讨论] 中华大4G金省/金赞/大七喜购机价格整理
icon.png[问题] 请问郑守柔医师还有在看诊吗?
icon.png厨房报价单
icon.png[闲聊] 真的很喜欢这位姊姊>////<
icon.png[讨论] 大家小时候暗恋的卡通男主角?
icon.pngRe: [难过] 林奕含好像走了
icon.pngRe: [闲聊] 女生会讨厌胸奴人吗?
icon.png[正妹] 清水あいり  (奶大图多)
icon.png[正妹] 大胃王正妹 千千
icon.png[爆卦] 小英竞选总部开幕 整条街挤爆看不到尽头
icon.png[LIVE] 奶酪陷阱 EP14
icon.png[大哭] 这样穿才是流行
icon.pngRe: [16冬] 为这美好的世界献上祝福! 02
icon.png[情报]原价屋!EZLINK Panzer V 240GB只要1680元
icon.png[闲聊] 脑袋在晃动到底是什麽感觉?
icon.png[情报] 石头微博更新
icon.png[神人] ULT - 100 第四位女优
icon.png[新闻] 《闪乱神乐PBS》释新角 禁断角色「小百
icon.pngRe: [闲聊] 精灵幻想记(有雷)
icon.png[抱怨] 淘宝增利物流也称重的太不老实了
icon.png[转录] 7.0上线後你该做的事情及介绍 不完全指北

请输入看板名称,例如:iOS站内搜寻

TOP